TIME,�g��[���C[MJ/h],����[MJ/h],�Ɩ�[MJ/h],�~�[[MJ/h],�①��[MJ/h],��y���[MJ/h],�Ǝ��q��[MJ/h],���̑��s��[MJ/h],�u�����`������[MJ/h]
2004/1/1 0:00,0.10512,0,0.0432,0.0216,0,0.108,0.09504,0,0.09648
2004/1/1 0:15,0.09648,0,0.05904,0.0216,0.108,0.11088,0.12816,0,0.06624
2004/1/1 0:30,0.108,0,0.04752,0.02736,0.4104,0.11232,0.0936,0,0.04896
2004/1/1 0:45,0.10368,0,0.05328,0.02304,0.10368,0.11376,0.09216,0,0.07488
2004/1/1 1:00,0.10656,0,0.04464,0.0216,0,0.11232,0.09504,0,0.10368
2004/1/1 1:15,0.10656,0,0.0432,0.02592,0.18576,0.11088,0.0936,0,0.06336
2004/1/1 1:30,0.09792,0,0.04464,0.03168,0.4032,0.11088,0.1224,0,0.04464
2004/1/1 1:45,0.09792,0,0.04464,0.02448,0.0576,0.11088,0.09792,0,0.0936
2004/1/1 2:00,0.09936,0,0.05184,0.0216,0,0.11232,0.09504,0,0.09504
2004/1/1 2:15,0.10512,0,0.04464,0.0288,0.24624,0.10944,0.0936,0,0.05904
2004/1/1 2:30,0.10224,0,0.04464,0.03024,0.35856,0.11088,0.12672,0,0.03744
2004/1/1 2:45,0.1008,0,0.05328,0.0216,0,0.11232,0.09072,0,0.08496
2004/1/1 3:00,0.10512,0,0.0432,0.0216,0,0.11232,0.09648,0,0.1008
2004/1/1 3:15,0.09936,0,0.0432,0.03168,0.35712,0.11232,0.09504,0,0.0432
2004/1/1 3:30,0.108,0,0.04752,0.02736,0.23472,0.11376,0.12672,0,0.06624
2004/1/1 3:45,0.10512,0,0.04464,0.0216,0,0.11376,0.09936,0,0.09072
2004/1/1 4:00,0.11088,0,0.04608,0.02304,0.07344,0.11376,0.09504,0,0.08784
2004/1/1 4:15,0.10656,0,0.05472,0.0288,0.40752,0.11088,0.10224,0,0.04032
2004/1/1 4:30,0.0936,0,0.0432,0.02592,0.10656,0.11232,0.0936,0,0.0864
2004/1/1 4:45,0.108,0,0.04464,0.0216,0,0.11232,0.13248,0,0.08208
2004/1/1 5:00,0.09648,0,0.04608,0.02448,0.20304,0.11232,0.0936,0,0.07344
2004/1/1 5:15,0.108,0,0.04464,0.02736,0.35712,0.11088,0.09936,0,0.04464
2004/1/1 5:30,0.09792,0,0.04896,0.0216,0,0.11376,0.09936,0,0.10224
2004/1/1 5:45,0.09936,0,0.04608,0.0216,0,0.11232,0.13968,0,0.07488
2004/1/1 6:00,0.10512,0,0.04752,0.03024,0.37152,0.11232,0.09648,0,0.0504
2004/1/1 6:15,0.10512,0,0.04608,0.02304,0.18864,0.11232,0.1008,0,0.07488
2004/1/1 6:30,0.11088,0,0.04464,0.0216,0,0.11088,0.09936,0,0.09072
2004/1/1 6:45,0.09648,0,0.04464,0.02304,0.11232,0.11664,0.12816,0,0.07344
2004/1/1 7:00,0.09792,0,0.04752,0.02736,0.41328,0.11232,0.09504,0,0.05184
2004/1/1 7:15,0.1008,0,0.04608,0.02448,0.07488,0.11376,0.0936,0,0.07776
2004/1/1 7:30,0.10368,0,0.05328,0.0216,0.0432,0.11088,0.09936,0,0.072
2004/1/1 7:45,0.10224,0,0.0432,0.02592,0.20448,0.11376,0.13392,0,0.0504
2004/1/1 8:00,0.10368,0,0.0432,0.03312,0.40608,0.11232,0.1008,0,0.0432
2004/1/1 8:15,0.10944,0,0.04464,0.0216,0.03888,0.11088,0.10224,0,0.08352
2004/1/1 8:30,0.1008,0,0.0432,0.0216,0,0.11232,0.09936,0,0.09936
2004/1/1 8:45,0.10512,0,0.04752,0.02448,0.26208,0.10944,0.12816,0,0.05904
2004/1/1 9:00,0.10512,0,0.04464,0.02448,0.33696,0.11232,0.09792,0,0.05904
2004/1/1 9:15,0.10512,0,0.0432,0.0216,0,0.10944,0.09936,0,0.09216
2004/1/1 9:30,0.10656,0,0.0432,0.0216,0,0.11088,0.09936,0,0.09792
2004/1/1 9:45,0.09936,0,0.04464,0.02592,0.41184,0.11232,0.10656,0,0.0432
2004/1/1 10:00,0.108,0,0.05184,0.0288,0.216,0.11088,0.12672,0,0.0648
2004/1/1 10:15,0.09936,0,0.0432,0.0216,0,0.11376,0.09792,0,0.09072
2004/1/1 10:30,0.10224,0,0.0432,0.02592,0.15408,0.11232,0.1008,0,0.072
2004/1/1 10:45,0.108,0,0.04608,0.02736,0.40752,0.11088,0.09504,0,0.04176
2004/1/1 11:00,0.10656,0,0.04608,0.0216,0.08352,0.11088,0.12816,0,0.08496
2004/1/1 11:15,0.09936,0,0.0432,0.0216,0,0.11232,0.0936,0,0.09072
2004/1/1 11:30,0.1008,0,0.05472,0.02304,0.34272,0.11088,0.09792,0,0.05472
2004/1/1 11:45,0.10512,0,0.04752,0.0216,0.27072,0.1152,0.11664,0,0.0504
2004/1/1 12:00,0.10224,0,0.04608,0.0216,0,0.11088,0.10224,0,0.10368
2004/1/1 12:15,0.09792,0,0.05184,0.0216,0.14688,0.11376,0.0936,0,0.06624
2004/1/1 12:30,0.108,0,0.04608,0.02736,0.42624,0.11232,0.09072,0,0.04032
2004/1/1 12:45,0.10656,0,0.0432,0.0216,0.10368,0.11088,0.09504,0,0.07776
2004/1/1 13:00,0.108,0,0.04752,0.0216,0,0.11232,0.12672,0,0.08928
2004/1/1 13:15,0.11088,0,0.0432,0.02304,0.34272,0.11088,0.09504,0,0.0504
2004/1/1 13:30,0.09792,0,0.0504,0.02304,0.29664,0.11232,0.1008,0,0.05328
2004/1/1 13:45,0.108,0,0.04464,0.0216,0,0.10944,0.08928,0,0.0864
2004/1/1 14:00,0.10512,0,0.04608,0.02304,0.18432,0.11232,0.09216,0,0.0648
2004/1/1 14:15,0.09936,0,0.0432,0.03024,0.4104,0.11232,0.08928,0,0.0504
2004/1/1 14:30,0.108,0,0.04896,0.02304,0.0432,0.11232,0.1224,0,0.08496
2004/1/1 14:45,0.10656,0,0.04464,0.02304,0.01296,0.11232,0.09216,0,0.08496
2004/1/1 15:00,0.1008,0,0.04752,0.02448,0.43056,0.11088,0.08496,0,0.03888
2004/1/1 15:15,0.10224,0,0.0504,0.02448,0.48528,0.11232,0.08928,0,0.01872
2004/1/1 15:30,0.10368,0,0.05184,0.0216,0.5616,0.10944,0.1224,0,0.00288
2004/1/1 15:45,0.108,0,0.05184,0.02304,0.53424,0.11088,0.09504,0,0.00864
2004/1/1 16:00,0.10656,0,0.04608,0.03024,0.44352,0.108,0.08496,0,0.04032
2004/1/1 16:15,0.1008,0,0.05184,0.02592,0.47664,0.11088,0.09216,0,0.03168
2004/1/1 16:30,0.10368,0,0.0432,0.02736,0.4464,0.11088,0.0864,0,0.04032
2004/1/1 16:45,0.10512,0,0.04608,0.02736,0.41472,0.11232,0.0864,0,0.04176
2004/1/1 17:00,0.1008,0,0.0504,0.03024,0.2736,0.108,0.11808,0,0.0576
2004/1/1 17:15,0.10224,0,0.0504,0.0216,0,0.10944,0.08784,0,0.08352
2004/1/1 17:30,0.10512,0,0.04464,0.02592,0.22032,0.11232,0.09072,0,0.06768
2004/1/1 17:45,0.09792,0,0.0432,0.03168,0.4176,0.1152,0.08784,0,0.04896
2004/1/1 18:00,0.108,0,0.0432,0.02448,0.10512,0.11376,0.08928,0,0.08496
2004/1/1 18:15,0.10512,0,0.04608,0.0216,0,0.10944,0.09072,0,0.08784
2004/1/1 18:30,0.09648,0,0.0432,0.02304,0.4032,0.10944,0.10224,0,0.04464
2004/1/1 18:45,0.10224,0,0.04608,0.02592,0.33408,0.10944,0.11088,0,0.05904
2004/1/1 19:00,0.10656,0,0.04608,0.0216,0,0.11088,0.08496,0,0.09216
2004/1/1 19:15,0.108,0,0.0432,0.02448,0.11664,0.11088,0.08928,0,0.06336
2004/1/1 19:30,0.10656,0,0.04608,0.03312,0.41472,0.10944,0.08496,0,0.03024
2004/1/1 19:45,0.09792,0,0.04752,0.02448,0.19152,0.11088,0.1152,0,0.072
2004/1/1 20:00,0.10368,0,0.0432,0.0216,0,0.10944,0.08496,0,0.09648
2004/1/1 20:15,0.09936,0,0.0432,0.03024,0.22752,0.10944,0.09216,0,0.06192
2004/1/1 20:30,0.10368,0,0.04464,0.03168,0.40608,0.11088,0.08784,0,0.03744
2004/1/1 20:45,0.09792,0,0.05328,0.02592,0.16992,0.10944,0.08928,0,0.06624
2004/1/1 21:00,0.0864,0,0.0432,0.0216,0,0.10944,0.11952,0,0.108
2004/1/1 21:15,0.0936,0,0.04896,0.0216,0.2232,0.11088,0.09216,0,0.06336
2004/1/1 21:30,0.09648,0,0.04896,0.02736,0.40176,0.108,0.09072,0,0.03744
2004/1/1 21:45,0.10656,0,0.0432,0.0216,0.13392,0.10944,0.08784,0,0.0648
2004/1/1 22:00,0.10224,0,0.04896,0.0216,0,0.11232,0.08496,0,0.09792
2004/1/1 22:15,0.09936,0,0.04464,0.02448,0.22608,0.11232,0.12096,0,0.05904
2004/1/1 22:30,0.10368,0,0.04608,0.02592,0.4032,0.11232,0.08928,0,0.04176
2004/1/1 22:45,0.10656,0,0.04608,0.02304,0.09792,0.11088,0.0864,0,0.0792
2004/1/1 23:00,0.10656,0,0.0432,0.0216,0,0.11088,0.09504,0,0.10512
2004/1/1 23:15,0.09792,0,0.05184,0.03024,0.27648,0.11088,0.09072,0,0.06336
2004/1/1 23:30,0.09792,0,0.0504,0.0288,0.40176,0.11088,0.09216,0,0.03888
2004/1/1 23:45,0.10512,0,0.04608,0.0216,0.00144,0.10944,0.12096,0,0.09072
2004/1/2 0:00,0.10944,0,0.04608,0.0216,0,0.11232,0.08928,0,0.09936
2004/1/2 0:15,0.10368,0,0.05328,0.02448,0.38304,0.11376,0.0936,0,0.03168
2004/1/2 0:30,0.09792,0,0.0432,0.02448,0.24048,0.11232,0.08784,0,0.07632
2004/1/2 0:45,0.1008,0,0.0432,0.0216,0,0.11088,0.09792,0,0.09504
2004/1/2 1:00,0.108,0,0.04464,0.02736,0.13968,0.11376,0.09216,0,0.08352
2004/1/2 1:15,0.09648,0,0.04752,0.02592,0.39168,0.11376,0.1224,0,0.04176
2004/1/2 1:30,0.10944,0,0.04608,0.0216,0,0.11376,0.0864,0,0.09504
2004/1/2 1:45,0.1008,0,0.05184,0.0216,0,0.11232,0.09216,0,0.08784
2004/1/2 2:00,0.09936,0,0.05184,0.02736,0.41616,0.11376,0.09504,0,0.04608
2004/1/2 2:15,0.10512,0,0.0432,0.0216,0.13392,0.11232,0.09216,0,0.0792
2004/1/2 2:30,0.1008,0,0.0432,0.0216,0,0.11088,0.13104,0,0.09792
2004/1/2 2:45,0.10656,0,0.0432,0.02304,0.24048,0.1152,0.0936,0,0.05904
2004/1/2 3:00,0.1008,0,0.05328,0.02448,0.28368,0.11232,0.08928,0,0.06192
2004/1/2 3:15,0.10368,0,0.0432,0.0216,0,0.11376,0.09648,0,0.08784
2004/1/2 3:30,0.10368,0,0.04464,0.02304,0.1152,0.11376,0.0936,0,0.08208
2004/1/2 3:45,0.10512,0,0.04608,0.02448,0.41184,0.11088,0.09072,0,0.04608
2004/1/2 4:00,0.1008,0,0.04464,0.02304,0.04464,0.11232,0.11952,0,0.1008
2004/1/2 4:15,0.10944,0,0.04464,0.0216,0,0.1152,0.09648,0,0.09072
2004/1/2 4:30,0.10656,0,0.04608,0.02448,0.3384,0.11232,0.0936,0,0.0576
2004/1/2 4:45,0.10512,0,0.04608,0.02592,0.20016,0.11232,0.09216,0,0.06912
2004/1/2 5:00,0.108,0,0.04752,0.0216,0,0.11376,0.12816,0,0.09792
2004/1/2 5:15,0.10512,0,0.04608,0.02736,0.17136,0.11232,0.09216,0,0.05616
2004/1/2 5:30,0.108,0,0.0432,0.02304,0.40176,0.11232,0.09792,0,0.03888
2004/1/2 5:45,0.10656,0,0.04608,0.0216,0,0.11088,0.0936,0,0.09072
2004/1/2 6:00,0.11088,0,0.04464,0.0216,0,0.11232,0.0936,0,0.0936
2004/1/2 6:15,0.10224,0,0.04608,0.02592,0.38448,0.11376,0.13392,0,0.0432
2004/1/2 6:30,0.09792,0,0.0504,0.02304,0.1944,0.11232,0.09504,0,0.072
2004/1/2 6:45,0.09936,0,0.0432,0.0216,0,0.1152,0.09504,0,0.08496
2004/1/2 7:00,0.10224,0,0.0432,0.02736,0.1584,0.1152,0.09504,0,0.09072
2004/1/2 7:15,0.10944,0,0.0432,0.0288,0.40464,0.11232,0.09504,0,0.04464
2004/1/2 7:30,0.10368,0,0.0432,0.0216,0.03168,0.11088,0.09648,0,0.09504
2004/1/2 7:45,0.09648,0,0.04608,0.0216,0,0.11232,0.13104,0,0.08352
2004/1/2 8:00,0.10944,0,0.0432,0.03168,0.3096,0.11232,0.09504,0,0.04608
2004/1/2 8:15,0.09792,0,0.04896,0.02448,0.30528,0.10944,0.09792,0,0.0576
2004/1/2 8:30,0.1008,0,0.0432,0.0216,0,0.1152,0.0936,0,0.09936
2004/1/2 8:45,0.09936,0,0.05184,0.0216,0,0.11376,0.13104,0,0.08928
2004/1/2 9:00,0.108,0,0.04608,0.0288,0.4248,0.11232,0.09216,0,0.04896
2004/1/2 9:15,0.11088,0,0.04896,0.0216,0.16992,0.11088,0.09216,0,0.06336
2004/1/2 9:30,0.1008,0,0.04608,0.0216,0,0.11232,0.09936,0,0.1008
2004/1/2 9:45,0.09936,0,0.0432,0.0288,0.16272,0.11088,0.12672,0,0.08064
2004/1/2 10:00,0.10656,0,0.0432,0.02304,0.40608,0.11232,0.1008,0,0.04608
2004/1/2 10:15,0.62352,0,0.80208,0.0216,0,0.1872,0.09792,0,-0.05184
2004/1/2 10:30,0.67248,0,1.42704,0.0216,0,0.43488,0.09072,0,-0.13248
2004/1/2 10:45,0.60912,0,1.53792,0.02448,0.40176,0.3816,0.12384,0,-0.20736
2004/1/2 11:00,4.58208,0,1.13904,0.02304,0.3312,0.20016,1.52928,0,-0.59328
2004/1/2 11:15,5.29344,0,1.5192,0.0216,0,0.30096,0.0936,0,-0.23472
2004/1/2 11:30,6.78672,0,1.79856,0.02448,0.23328,0.324,0.11808,0,-0.28224
2004/1/2 11:45,3.44016,0,1.30032,0.02736,0.42192,0.32688,0.13968,0,-0.22752
2004/1/2 12:00,1.56528,0,0.36576,0.02304,0.03168,0.32832,0.11088,0,-0.00864
2004/1/2 12:15,2.94336,0,0.5832,1.57824,0.18288,0.32688,0.1368,0,-0.11664
2004/1/2 12:30,3.28896,0,1.11888,0.0288,0.42624,0.33264,0.09504,0,-0.21024
2004/1/2 12:45,1.98864,0,1.2744,0.0216,0.13392,0.22176,0.09648,0,-0.09504
2004/1/2 13:00,0.10944,0,0.27936,0.02304,0.0936,0.21024,0.09504,0,0.04032
2004/1/2 13:15,0.11376,0,0.26496,0.03168,0.432,0.2088,0.11232,0,0.00432
2004/1/2 13:30,0.10512,0,0.23616,0.0216,0.15984,0.2016,0.10224,0,0.04464
2004/1/2 13:45,0.10224,0,0.05184,0.02304,0.05904,0.20304,0.0864,0,0.07776
2004/1/2 14:00,0.108,0,0.05472,0.02448,0.432,0.20592,0.08928,0,0.0216
2004/1/2 14:15,1.74672,0,0.63072,0.0288,0.29376,0.22464,0.09648,0,-0.13248
2004/1/2 14:30,2.592,0,1.03968,0.0216,0,0.25632,0.08784,0,-0.1728
2004/1/2 14:45,2.61072,0,1.64592,0.02736,0.35568,0.3384,0.1296,0,-0.25344
2004/1/2 15:00,2.4912,0,2.30256,0.03024,0.34272,0.34128,0.09216,0,-0.34272
2004/1/2 15:15,2.628,0,2.4192,0.0216,0,0.25344,0.08496,0,-0.31824
2004/1/2 15:30,3.90672,0,1.5336,0.02592,0.33696,0.2088,0.08928,0,-0.19008
2004/1/2 15:45,2.6712,0,2.34576,0.02592,0.38304,0.36432,0.08784,0,-0.28224
2004/1/2 16:00,2.79072,0,2.73744,0.0216,0,0.43344,0.11664,0,-0.30672
2004/1/2 16:15,2.9232,0,2.14992,0.02592,0.24768,0.20736,0.09936,0,-0.20304
2004/1/2 16:30,2.5776,0,1.89072,0.68544,0.42768,0.20016,0.13248,0,-0.11232
2004/1/2 16:45,2.84688,0,1.75248,1.69488,0.16704,0.19584,0.09792,0,-0.23328
2004/1/2 17:00,2.92464,0,1.692,1.24128,0.02016,0.2232,0.09792,0,-0.1296
2004/1/2 17:15,2.61936,0,1.6632,0.15408,0.43632,0.19584,0.12384,0,-0.19872
2004/1/2 17:30,1.63728,0,1.3608,0.07056,0.41184,0.19728,0.09216,0,-0.07056
2004/1/2 17:45,1.82592,0,1.3752,0.06768,0.53712,0.19728,0.0864,0,-0.10944
2004/1/2 18:00,2.9448,0,1.7712,0.07056,0.52272,0.19584,0.09216,0,-0.216
2004/1/2 18:15,2.88576,0,1.51776,0.072,0.4536,0.19584,0.08064,0,-0.1656
2004/1/2 18:30,2.85264,0,1.71648,0.07344,0.50832,0.19584,0.09072,0,-0.18576
2004/1/2 18:45,2.65392,0,1.72656,0.06624,0.48384,0.1944,0.11808,0,-0.15552
2004/1/2 19:00,2.64528,0,2.32704,0.02592,0.45216,0.1944,0.08784,0,-0.22464
2004/1/2 19:15,2.53152,0,2.72592,0.03168,0.44352,0.19584,0.08928,0,-0.26928
2004/1/2 19:30,1.44432,0,1.89504,0.02592,0.33408,0.20304,0.08352,0,-0.13824
2004/1/2 19:45,1.40832,0,1.692,0.0216,0,0.20016,0.08496,0,-0.07632
2004/1/2 20:00,1.38528,0,1.76544,0.3024,0.27648,0.2016,0.11376,0,-0.18
2004/1/2 20:15,2.5056,0,2.51568,0.02736,0.45216,0.20304,0.08208,0,-0.29952
2004/1/2 20:30,2.37888,0,3.17088,0.5112,0.42912,0.29376,0.09216,0,-0.39024
2004/1/2 20:45,2.2032,0,2.9088,0.33552,0.06624,0.43488,0.09504,0,-0.30384
2004/1/2 21:00,2.88864,0,2.48688,0.2664,0.13248,0.22032,0.0936,0,-0.3528
2004/1/2 21:15,2.77632,0,2.12256,0.0216,0.44928,0.26928,0.12096,0,-0.35568
2004/1/2 21:30,2.50704,0,2.23776,0.02736,0.24912,0.27504,0.0864,0,-0.37584
2004/1/2 21:45,1.96272,0,1.74096,0.0216,0,0.288,0.08784,0,-0.12384
2004/1/2 22:00,1.728,0,1.764,0.02304,0.34704,0.27936,0.8424,0,-0.45216
2004/1/2 22:15,1.62,0,1.92384,0.02448,0.41184,0.29232,0.08064,0,-0.08064
2004/1/2 22:30,1.70928,0,2.47392,0.0216,0,0.28512,0.08352,0,-0.13536
2004/1/2 22:45,1.692,0,1.99728,0.02592,0.20736,0.39168,0.1224,0,-0.11376
2004/1/2 23:00,0.77472,0,0.97344,0.02448,0.43344,0.40032,0.08496,0,-0.13248
2004/1/2 23:15,0.44928,0,0.86256,0.02304,0.15984,0.42912,0.36144,0,-0.2736
2004/1/2 23:30,0.3456,0,1.03392,0.02304,0.0072,0.30384,1.65888,0,-0.30528
2004/1/2 23:45,0.50112,0,0.99648,0.02448,0.4464,0.3024,0.09072,0,-0.16416
2004/1/3 0:00,0.18288,0,0.50256,0.02304,0.18576,0.19296,0.1152,0,-0.03888
2004/1/3 0:15,0.10224,0,0.06912,0.0216,0,0.1728,0.0864,0,0.0648
2004/1/3 0:30,0.10368,0,0.07776,0.02592,0.40176,0.1728,0.08784,0,0.02592
2004/1/3 0:45,0.10512,0,0.06768,0.0288,0.26352,0.15984,0.08496,0,0.03888
2004/1/3 1:00,0.108,0,0.06624,0.0216,0,0.15552,0.09072,0,0.0648
2004/1/3 1:15,0.11232,0,0.0648,0.02592,0.30672,0.15552,0.08352,0,0.03312
2004/1/3 1:30,0.10512,0,0.06624,0.02448,0.25632,0.15264,0.11952,0,0.0288
2004/1/3 1:45,0.09936,0,0.0648,0.0216,0,0.1512,0.08928,0,0.08064
2004/1/3 2:00,0.10656,0,0.06768,0.02592,0.28224,0.1512,0.08352,0,0.04752
2004/1/3 2:15,0.10368,0,0.07056,0.02448,0.32688,0.1512,0.08928,0,0.036
2004/1/3 2:30,0.09936,0,0.06768,0.0216,0,0.1512,0.08928,0,0.07776
2004/1/3 2:45,0.10944,0,0.06912,0.02448,0.22896,0.1512,0.0864,0,0.04608
2004/1/3 3:00,0.10944,0,0.06912,0.02304,0.28944,0.15696,0.11952,0,0.03312
2004/1/3 3:15,0.10512,0,0.072,0.0216,0,0.15984,0.09072,0,0.0792
2004/1/3 3:30,0.10512,0,0.06768,0.02592,0.24192,0.15984,0.08784,0,0.04464
2004/1/3 3:45,0.1008,0,0.06624,0.02592,0.34416,0.1512,0.08784,0,0.03312
2004/1/3 4:00,0.10944,0,0.07056,0.0216,0,0.1512,0.08928,0,0.06624
2004/1/3 4:15,0.11088,0,0.0648,0.02592,0.19296,0.1512,0.0864,0,0.0504
2004/1/3 4:30,0.108,0,0.07056,0.02592,0.31536,0.1512,0.09072,0,0.03024
2004/1/3 4:45,0.108,0,0.072,0.0216,0,0.15264,0.12528,0,0.06912
2004/1/3 5:00,0.10944,0,0.06912,0.02448,0.19728,0.15552,0.0864,0,0.04752
2004/1/3 5:15,0.11088,0,0.06624,0.02448,0.36288,0.15696,0.09216,0,0.02448
2004/1/3 5:30,0.09936,0,0.06768,0.0216,0,0.1584,0.09072,0,0.07056
2004/1/3 5:45,0.10512,0,0.06624,0.02304,0.15984,0.15264,0.09072,0,0.05904
2004/1/3 6:00,0.108,0,0.06624,0.03024,0.34272,0.15552,0.09216,0,0.0288
2004/1/3 6:15,0.10512,0,0.06624,0.0216,0,0.15552,0.09648,0,0.07632
2004/1/3 6:30,0.10512,0,0.06768,0.0216,0.14688,0.1584,0.09216,0,0.06336
2004/1/3 6:45,1.48752,0,0.28224,0.03312,0.38304,0.1368,0.12384,0,-0.0072
2004/1/3 7:00,7.02864,0,2.55744,0.98784,0.00576,0.11376,0.1008,0,-0.35424
2004/1/3 7:15,5.03712,0,3.18816,1.70784,0.1368,0.216,0.10512,0,-0.28512
2004/1/3 7:30,2.12256,0,2.00448,0.80928,0.43344,0.2376,0.10224,0,-0.1656
2004/1/3 7:45,1.8936,0,2.3112,0.02304,0.04896,0.22896,0.14688,0,-0.15552
2004/1/3 8:00,5.10624,0,1.98144,0.0216,0.06192,0.22464,0.12528,0,-0.17568
2004/1/3 8:15,5.2848,0,1.91088,0.03168,0.432,0.216,0.08352,0,-0.26208
2004/1/3 8:30,5.71248,0,1.42272,0.02592,0.12672,0.22608,0.6192,0,-0.4104
2004/1/3 8:45,6.02784,0,1.4472,0.0216,0,0.22176,0.13824,0,-0.52992
2004/1/3 9:00,0.75744,0,0.46224,0.02448,0.41904,0.13968,0.09072,0,0.01584
2004/1/3 9:15,0.10512,0,0.05328,0.02304,0.19728,0.11088,0.11376,0,0.06768
2004/1/3 9:30,0.09936,0,0.04464,0.0216,0,0.11232,0.09216,0,0.09648
2004/1/3 9:45,0.10512,0,0.0432,0.02592,0.3744,0.11088,0.0936,0,0.0576
2004/1/3 10:00,0.10512,0,0.0432,0.02736,0.2088,0.10944,0.09504,0,0.06336
2004/1/3 10:15,0.10944,0,0.04608,0.0216,0,0.11088,0.1224,0,0.0936
2004/1/3 10:30,0.10224,0,0.0432,0.02448,0.35424,0.10944,0.0936,0,0.05328
2004/1/3 10:45,0.10368,0,0.0432,0.02304,0.252,0.11088,0.09072,0,0.06336
2004/1/3 11:00,0.10944,0,0.04752,0.0216,0,0.11088,0.08928,0,0.08352
2004/1/3 11:15,0.108,0,0.0432,0.02448,0.3456,0.11376,0.09216,0,0.04752
2004/1/3 11:30,0.10512,0,0.0432,0.02448,0.22752,0.10944,0.0864,0,0.07344
2004/1/3 11:45,0.10224,0,0.04896,0.0216,0,0.11808,0.09072,0,0.09648
2004/1/3 12:00,0.09936,0,0.04464,0.0288,0.36432,0.11376,0.0864,0,0.0576
2004/1/3 12:15,0.10512,0,0.04752,0.02736,0.23904,0.11232,0.11808,0,0.06336
2004/1/3 12:30,0.10656,0,0.0432,0.0216,0,0.11232,0.08784,0,0.09216
2004/1/3 12:45,0.10368,0,0.08784,0.02592,0.36144,0.11232,0.08496,0,0.05616
2004/1/3 13:00,0.10656,0,0.25488,0.02592,0.18864,0.11376,0.08352,0,0.04032
2004/1/3 13:15,0.10944,0,0.04464,0.0216,0,0.11088,0.08496,0,0.1008
2004/1/3 13:30,0.10944,0,0.04752,0.02592,0.4176,0.1152,0.08064,0,0.0432
2004/1/3 13:45,0.0936,0,0.05328,0.02448,0.23904,0.108,0.11808,0,0.0576
2004/1/3 14:00,0.1008,0,0.05328,0.0216,0,0.11088,0.08352,0,0.09216
2004/1/3 14:15,0.10656,0,0.04608,0.02592,0.35712,0.11088,0.08352,0,0.04896
2004/1/3 14:30,0.09792,0,0.0432,0.02592,0.22608,0.11232,0.08784,0,0.06192
2004/1/3 14:45,0.10512,0,0.0432,0.0216,0,0.11376,0.08784,0,0.108
2004/1/3 15:00,0.108,0,0.0432,0.02304,0.3672,0.11088,0.08496,0,0.04464
2004/1/3 15:15,0.09792,0,0.05616,0.02736,0.288,0.11088,0.0864,0,0.05616
2004/1/3 15:30,0.108,0,0.05184,0.0216,0,0.11088,0.08496,0,0.08208
2004/1/3 15:45,0.09936,0,0.0432,0.02592,0.28368,0.10944,0.08208,0,0.05904
2004/1/3 16:00,0.10656,0,0.05184,0.03168,0.3384,0.11088,0.08928,0,0.03744
2004/1/3 16:15,0.108,0,0.04608,0.0216,0,0.11232,0.11808,0,0.09504
2004/1/3 16:30,0.10656,0,0.04608,0.02304,0.18,0.10944,0.0864,0,0.06912
2004/1/3 16:45,0.10656,0,0.0432,0.02592,0.43776,0.11088,0.08784,0,0.03888
2004/1/3 17:00,0.10656,0,0.0432,0.02304,0.0432,0.11088,0.08352,0,0.08352
2004/1/3 17:15,0.09792,0,0.05328,0.02304,0.0648,0.11088,0.08784,0,0.07344
2004/1/3 17:30,0.10512,0,0.0432,0.0288,0.4176,0.11088,0.08208,0,0.036
2004/1/3 17:45,0.10656,0,0.04608,0.02304,0.18288,0.11088,0.08352,0,0.072
2004/1/3 18:00,0.09792,0,0.05184,0.0216,0,0.11088,0.11664,0,0.08064
2004/1/3 18:15,0.10656,0,0.04752,0.02448,0.32112,0.108,0.08208,0,0.0504
2004/1/3 18:30,0.09648,0,0.05184,0.02304,0.3456,0.11232,0.0864,0,0.04176
2004/1/3 18:45,0.1008,0,0.0432,0.0216,0,0.10944,0.07776,0,0.09792
2004/1/3 19:00,0.09648,0,0.04896,0.02448,0.11664,0.11088,0.0864,0,0.072
2004/1/3 19:15,0.10512,0,0.0432,0.02304,0.42624,0.10944,0.08352,0,0.036
2004/1/3 19:30,0.1008,0,0.04752,0.02304,0.49104,0.10944,0.0864,0,0.0288
2004/1/3 19:45,0.10512,0,0.04608,0.02304,0.54,0.11088,0.11664,0,0.00144
2004/1/3 20:00,0.10368,0,0.0432,0.03024,0.52992,0.108,0.08784,0,0.0144
2004/1/3 20:15,2.88576,0,1.23552,0.02736,0.41184,0.11088,0.0792,0,-0.15984
2004/1/3 20:30,5.00976,0,2.45232,0.0216,0.48528,0.32544,0.08928,0,-0.3888
2004/1/3 20:45,4.81248,0,2.77344,0.03024,0.45936,0.63792,0.08352,0,-0.44784
2004/1/3 21:00,4.12416,0,2.07792,0.02304,0.43488,0.48096,0.1224,0,-0.38448
2004/1/3 21:15,3.91968,0,2.29536,0.02592,0.42768,0.324,0.08352,0,-0.44208
2004/1/3 21:30,3.82896,0,1.7208,0.02304,0.04752,0.31968,0.0864,0,-0.30384
2004/1/3 21:45,3.1176,0,1.50336,0.02448,0.06192,0.324,0.08208,0,-0.13104
2004/1/3 22:00,1.82304,0,1.56528,0.02592,0.43344,0.32112,0.0864,0,-0.13104
2004/1/3 22:15,1.87632,0,1.65312,0.02448,0.42048,0.32112,0.71856,0,-0.36
2004/1/3 22:30,1.94832,0,2.09952,0.0216,0,0.32832,0.0936,0,-0.13536
2004/1/3 22:45,2.0304,0,1.70496,0.02448,0.13392,0.3168,0.12096,0,-0.12528
2004/1/3 23:00,1.58256,0,0.63072,0.02304,0.43632,0.3024,1.54656,0,-0.29232
2004/1/3 23:15,0.55008,0,0.8568,0.02736,0.28368,0.27648,0.08496,0,-0.1296
2004/1/3 23:30,0.53568,0,0.5544,0.0216,0,0.45072,0.08496,0,-0.07632
2004/1/3 23:45,0.53136,0,0.35856,0.02592,0.23904,0.5472,0.08784,0,-0.09504
2004/1/4 0:00,0.31104,0,0.27936,0.03312,0.4176,0.40752,0.08784,0,-0.07776
2004/1/4 0:15,0.108,0,0.05616,0.0216,0.03312,0.18144,0.09216,0,0.072
2004/1/4 0:30,0.10944,0,0.04752,0.02304,0.06336,0.11232,0.11808,0,0.06336
2004/1/4 0:45,0.1008,0,0.05472,0.02736,0.44208,0.11376,0.08208,0,0.04032
2004/1/4 1:00,0.108,0,0.04608,0.02304,0.108,0.11376,0.0864,0,0.07344
2004/1/4 1:15,0.10944,0,0.0432,0.0216,0,0.10944,0.09072,0,0.09936
2004/1/4 1:30,0.10944,0,0.04464,0.03312,0.4176,0.11088,0.08784,0,0.04032
2004/1/4 1:45,0.11232,0,0.0432,0.02736,0.19152,0.10944,0.08928,0,0.06624
2004/1/4 2:00,0.1008,0,0.0432,0.0216,0,0.11232,0.108,0,0.09072
2004/1/4 2:15,0.1008,0,0.0648,0.02592,0.32256,0.11088,0.09936,0,0.05328
2004/1/4 2:30,0.11232,0,0.0432,0.0216,0.27936,0.11232,0.09216,0,0.06912
2004/1/4 2:45,0.10944,0,0.04464,0.0216,0,0.1152,0.09216,0,0.09936
2004/1/4 3:00,0.108,0,0.04464,0.02736,0.2304,0.11376,0.08928,0,0.06912
2004/1/4 3:15,0.11376,0,0.04464,0.0288,0.33552,0.11376,0.08496,0,0.04608
2004/1/4 3:30,0.10368,0,0.05328,0.0216,0,0.1152,0.09504,0,0.08784
2004/1/4 3:45,0.108,0,0.04464,0.02448,0.17424,0.11376,0.09072,0,0.07344
2004/1/4 4:00,0.1152,0,0.04608,0.02304,0.396,0.108,0.12096,0,0.03744
2004/1/4 4:15,0.09792,0,0.05472,0.0216,0,0.1152,0.08928,0,0.09792
2004/1/4 4:30,0.11232,0,0.0432,0.02304,0.10656,0.11232,0.08496,0,0.0864
2004/1/4 4:45,0.10944,0,0.04464,0.0288,0.41616,0.1152,0.08784,0,0.036
2004/1/4 5:00,0.108,0,0.04896,0.0216,0,0.11232,0.12096,0,0.08928
2004/1/4 5:15,0.10944,0,0.04464,0.0216,0.08208,0.11376,0.08928,0,0.09936
2004/1/4 5:30,0.10368,0,0.05184,0.02736,0.41616,0.11376,0.09216,0,0.0432
2004/1/4 5:45,0.108,0,0.04608,0.0216,0,0.11232,0.08928,0,0.09792
2004/1/4 6:00,0.10944,0,0.05184,0.02304,0.06192,0.1152,0.08784,0,0.06624
2004/1/4 6:15,0.10224,0,0.04752,0.02736,0.43776,0.10944,0.12096,0,0.04752
2004/1/4 6:30,0.14256,0,0.29952,0.02304,0.06768,0.13536,0.09072,0,0.06048
2004/1/4 6:45,4.74336,0,2.01168,0.0216,0,0.12672,0.09216,0,-0.06912
2004/1/4 7:00,3.276,0,1.1592,0.02448,0.41184,0.11664,0.09504,0,-0.144
2004/1/4 7:15,3.42144,0,0.5256,0.4896,0.08784,0.13824,0.10512,0,-0.0648
2004/1/4 7:30,2.67984,0,0.72432,1.89072,0,0.43488,0.13536,0,0.00432
2004/1/4 7:45,2.37312,0,0.71424,0.02448,0.432,0.29808,0.1152,0,-0.0288
2004/1/4 8:00,2.04912,0,0.79632,0.02448,0.17568,0.20016,0.1224,0,-0.01008
2004/1/4 8:15,1.8288,0,1.24416,0.59616,0,0.20016,0.12528,0,-0.03312
2004/1/4 8:30,1.33344,0,1.1088,0.24192,0.3672,0.30672,0.29808,0,-0.09072
2004/1/4 8:45,2.14704,0,1.06992,0.02448,0.24048,0.324,0.09504,0,-0.13392
2004/1/4 9:00,1.1088,0,0.68832,0.0216,0,0.324,0.08784,0,0.02448
2004/1/4 9:15,0.74736,0,0.40608,0.03024,0.33408,0.324,0.11952,0,0.00144
2004/1/4 9:30,0.57312,0,0.29808,0.02448,0.28512,0.324,0.08064,0,0.04608
2004/1/4 9:45,0.10944,0,0.30384,0.0216,0,0.324,0.07344,0,0.08928
2004/1/4 10:00,0.11088,0,0.26928,0.02448,0.29232,0.324,0.08496,0,0.05184
2004/1/4 10:15,0.1008,0,0.32976,0.02448,0.34992,0.324,0.13104,0,0.036